Time,TemperatureF,DewpointF,PressureIn,WindDirection,WindDirectionDegrees,WindSpeedMPH,WindSpeedGustMPH,Humidity,HourlyPrecipIn,Conditions,Clouds,dailyrainin,SoftwareType,DateUTC
2013-10-07 00:00:00,70.6,60.0,29.58,SW,234,0.0,-999.0,69,-99.99,,,0.00,weatherlink.com 1.10,2013-10-07 04:00:00,
2013-10-07 00:15:00,70.1,60.0,29.57,SW,234,0.0,-999.0,71,-99.99,,,0.00,weatherlink.com 1.10,2013-10-07 04:15:00,
2013-10-07 00:30:00,69.1,61.0,29.57,WNW,282,0.0,-999.0,74,-99.99,,,0.00,weatherlink.com 1.10,2013-10-07 04:30:00,
2013-10-07 00:45:00,68.3,61.0,29.56,SW,219,0.0,-999.0,77,-99.99,,,0.00,weatherlink.com 1.10,2013-10-07 04:45:00,
2013-10-07 01:00:00,67.4,61.0,29.57,SW,222,0.0,-999.0,79,-99.99,,,0.00,weatherlink.com 1.10,2013-10-07 05:00:00,
2013-10-07 01:15:00,66.9,61.0,29.56,SW,230,1.0,-999.0,81,-99.99,,,0.00,weatherlink.com 1.10,2013-10-07 05:15:00,
2013-10-07 01:30:00,65.8,60.0,29.55,NNW,335,1.0,-999.0,82,-99.99,,,0.00,weatherlink.com 1.10,2013-10-07 05:30:00,
2013-10-07 01:45:00,62.9,58.0,29.56,NNW,329,3.0,-999.0,85,-99.99,,,0.00,weatherlink.com 1.10,2013-10-07 05:45:00,
2013-10-07 02:00:00,60.9,57.0,29.57,NNW,337,3.0,-999.0,86,-99.99,,,0.00,weatherlink.com 1.10,2013-10-07 06:00:00,
2013-10-07 02:15:00,59.5,55.0,29.57,West,274,4.0,-999.0,85,-99.99,,,0.00,weatherlink.com 1.10,2013-10-07 06:15:00,
2013-10-07 02:30:00,58.4,54.0,29.57,West,272,2.0,-999.0,84,-99.99,,,0.00,weatherlink.com 1.10,2013-10-07 06:30:00,
2013-10-07 02:45:00,58.0,54.0,29.58,NNW,333,2.0,-999.0,85,-99.99,,,0.00,weatherlink.com 1.10,2013-10-07 06:45:00,
2013-10-07 03:00:00,57.5,54.0,29.59,WSW,258,0.0,-999.0,87,-99.99,,,0.00,weatherlink.com 1.10,2013-10-07 07:00:00,
2013-10-07 03:15:00,56.9,54.0,29.58,NW,318,9.0,-999.0,89,-99.99,,,0.00,weatherlink.com 1.10,2013-10-07 07:15:00,
2013-10-07 03:30:00,56.3,54.0,29.59,WSW,243,0.0,-999.0,90,-99.99,,,0.00,weatherlink.com 1.10,2013-10-07 07:30:00,
2013-10-07 03:45:00,56.2,54.0,29.57,WSW,250,0.0,-999.0,91,-99.99,,,0.00,weatherlink.com 1.10,2013-10-07 07:45:00,
2013-10-07 04:00:00,55.9,53.0,29.59,SW,232,0.0,-999.0,91,-99.99,,,0.00,weatherlink.com 1.10,2013-10-07 08:00:00,
2013-10-07 04:15:00,55.7,54.0,29.58,SW,233,0.0,-999.0,92,-99.99,,,0.00,weatherlink.com 1.10,2013-10-07 08:15:00,
2013-10-07 04:30:00,55.6,53.0,29.59,WSW,258,0.0,-999.0,92,-99.99,,,0.00,weatherlink.com 1.10,2013-10-07 08:30:00,
2013-10-07 04:45:00,55.4,53.0,29.60,West,270,0.0,-999.0,92,-99.99,,,0.01,weatherlink.com 1.10,2013-10-07 08:45:00,
2013-10-07 05:00:00,55.3,53.0,29.59,West,271,0.0,-999.0,93,-99.99,,,0.01,weatherlink.com 1.10,2013-10-07 09:00:00,
2013-10-07 05:15:00,55.4,54.0,29.57,West,271,0.0,-999.0,93,-99.99,,,0.01,weatherlink.com 1.10,2013-10-07 09:15:00,
2013-10-07 05:30:00,55.3,53.0,29.58,West,261,0.0,-999.0,93,-99.99,,,0.03,weatherlink.com 1.10,2013-10-07 09:30:00,
2013-10-07 05:45:00,55.1,53.0,29.60,SW,220,0.0,-999.0,93,-99.99,,,0.11,weatherlink.com 1.10,2013-10-07 09:45:00,
2013-10-07 06:00:00,54.8,53.0,29.60,WSW,247,1.0,-999.0,93,-99.99,,,0.11,weatherlink.com 1.10,2013-10-07 10:00:00,
2013-10-07 06:15:00,54.4,53.0,29.60,SSW,212,1.0,-999.0,93,-99.99,,,0.12,weatherlink.com 1.10,2013-10-07 10:15:00,
2013-10-07 06:30:00,54.1,52.0,29.60,SW,233,3.0,-999.0,93,-99.99,,,0.13,weatherlink.com 1.10,2013-10-07 10:30:00,
2013-10-07 06:45:00,53.3,51.0,29.61,WSW,253,3.0,-999.0,93,-99.99,,,0.14,weatherlink.com 1.10,2013-10-07 10:45:00,
2013-10-07 07:00:00,52.9,51.0,29.62,WSW,247,0.0,-999.0,93,-99.99,,,0.14,weatherlink.com 1.10,2013-10-07 11:00:00,
2013-10-07 07:15:00,52.8,51.0,29.62,West,263,1.0,-999.0,93,-99.99,,,0.15,weatherlink.com 1.10,2013-10-07 11:15:00,
2013-10-07 07:30:00,52.5,51.0,29.62,SSW,202,2.0,-999.0,93,-99.99,,,0.15,weatherlink.com 1.10,2013-10-07 11:30:00,
2013-10-07 07:45:00,52.3,50.0,29.63,SW,230,5.0,-999.0,93,-99.99,,,0.15,weatherlink.com 1.10,2013-10-07 11:45:00,
2013-10-07 08:01:00,52.2,50.0,29.64,SSW,199,2.0,-999.0,93,-99.99,,,0.16,weatherlink.com 1.10,2013-10-07 12:01:00,
2013-10-07 08:16:00,52.0,50.0,29.64,SW,232,0.0,-999.0,93,-99.99,,,0.16,weatherlink.com 1.10,2013-10-07 12:16:00,
2013-10-07 08:31:00,52.0,50.0,29.64,SSE,148,0.0,-999.0,93,-99.99,,,0.16,weatherlink.com 1.10,2013-10-07 12:31:00,
2013-10-07 08:46:00,51.9,50.0,29.65,SW,224,5.0,-999.0,93,-99.99,,,0.16,weatherlink.com 1.10,2013-10-07 12:46:00,
2013-10-07 09:00:00,51.6,50.0,29.65,SSW,209,7.0,-999.0,93,-99.99,,,0.16,weatherlink.com 1.10,2013-10-07 13:00:00,
2013-10-07 09:16:00,50.2,48.0,29.66,SSE,155,1.0,-999.0,92,-99.99,,,0.16,weatherlink.com 1.10,2013-10-07 13:16:00,
2013-10-07 09:31:00,49.8,47.0,29.68,SSW,199,1.0,-999.0,90,-99.99,,,0.16,weatherlink.com 1.10,2013-10-07 13:31:00,
2013-10-07 10:01:00,49.8,47.0,29.68,SSW,196,2.0,-999.0,89,-99.99,,,0.16,weatherlink.com 1.10,2013-10-07 14:01:00,
2013-10-07 10:16:00,49.2,45.0,29.69,SW,224,1.0,-999.0,86,-99.99,,,0.16,weatherlink.com 1.10,2013-10-07 14:16:00,
2013-10-07 10:31:00,49.2,44.0,29.70,SW,222,2.0,-999.0,82,-99.99,,,0.16,weatherlink.com 1.10,2013-10-07 14:31:00,
2013-10-07 10:46:00,49.5,43.0,29.69,WSW,248,0.0,-999.0,79,-99.99,,,0.16,weatherlink.com 1.10,2013-10-07 14:46:00,
2013-10-07 11:01:00,50.4,43.0,29.69,SW,234,0.0,-999.0,77,-99.99,,,0.16,weatherlink.com 1.10,2013-10-07 15:01:00,
2013-10-07 11:16:00,50.8,43.0,29.70,WNW,291,4.0,-999.0,74,-99.99,,,0.16,weatherlink.com 1.10,2013-10-07 15:16:00,
2013-10-07 11:31:00,51.7,43.0,29.70,SSW,206,5.0,-999.0,72,-99.99,,,0.16,weatherlink.com 1.10,2013-10-07 15:31:00,
2013-10-07 11:46:00,51.4,43.0,29.71,East,85,0.0,-999.0,72,-99.99,,,0.16,weatherlink.com 1.10,2013-10-07 15:46:00,
2013-10-07 12:01:00,50.4,41.0,29.71,NW,323,6.0,-999.0,71,-99.99,,,0.16,weatherlink.com 1.10,2013-10-07 16:01:00,
2013-10-07 12:16:00,50.2,42.0,29.73,WSW,239,10.0,-999.0,73,-99.99,,,0.16,weatherlink.com 1.10,2013-10-07 16:16:00,
2013-10-07 12:31:00,51.0,43.0,29.73,SW,227,0.0,-999.0,74,-99.99,,,0.16,weatherlink.com 1.10,2013-10-07 16:31:00,
2013-10-07 12:46:00,53.1,42.0,29.73,WSW,256,1.0,-999.0,67,-99.99,,,0.16,weatherlink.com 1.10,2013-10-07 16:46:00,
2013-10-07 13:01:00,52.5,42.0,29.72,South,189,7.0,-999.0,68,-99.99,,,0.16,weatherlink.com 1.10,2013-10-07 17:01:00,
2013-10-07 13:16:00,53.5,42.0,29.73,SSW,198,3.0,-999.0,66,-99.99,,,0.16,weatherlink.com 1.10,2013-10-07 17:16:00,
2013-10-07 13:31:00,53.3,42.0,29.72,WNW,285,8.0,-999.0,66,-99.99,,,0.16,weatherlink.com 1.10,2013-10-07 17:31:00,
2013-10-07 13:46:00,53.5,42.0,29.73,SSW,212,3.0,-999.0,65,-99.99,,,0.16,weatherlink.com 1.10,2013-10-07 17:46:00,
2013-10-07 14:01:00,54.2,42.0,29.72,SSW,213,0.0,-999.0,63,-99.99,,,0.16,weatherlink.com 1.10,2013-10-07 18:01:00,
2013-10-07 14:16:00,53.5,42.0,29.72,SSE,164,0.0,-999.0,66,-99.99,,,0.16,weatherlink.com 1.10,2013-10-07 18:16:00,
2013-10-07 14:31:00,53.1,42.0,29.74,WSW,239,7.0,-999.0,67,-99.99,,,0.16,weatherlink.com 1.10,2013-10-07 18:31:00,
2013-10-07 14:46:00,52.9,42.0,29.75,West,267,3.0,-999.0,66,-99.99,,,0.16,weatherlink.com 1.10,2013-10-07 18:46:00,
2013-10-07 15:01:00,53.2,42.0,29.75,West,264,6.0,-999.0,67,-99.99,,,0.16,weatherlink.com 1.10,2013-10-07 19:01:00,
2013-10-07 15:16:00,52.5,43.0,29.77,SSE,157,3.0,-999.0,69,-99.99,,,0.16,weatherlink.com 1.10,2013-10-07 19:16:00,
2013-10-07 15:31:00,53.1,42.0,29.77,SSW,213,0.0,-999.0,67,-99.99,,,0.16,weatherlink.com 1.10,2013-10-07 19:31:00,
2013-10-07 15:46:00,53.8,43.0,29.78,NW,306,5.0,-999.0,66,-99.99,,,0.16,weatherlink.com 1.10,2013-10-07 19:46:00,
2013-10-07 16:01:00,55.1,43.0,29.78,West,265,1.0,-999.0,63,-99.99,,,0.16,weatherlink.com 1.10,2013-10-07 20:01:00,
2013-10-07 16:16:00,54.5,42.0,29.79,SSE,151,3.0,-999.0,62,-99.99,,,0.16,weatherlink.com 1.10,2013-10-07 20:16:00,
2013-10-07 16:34:00,53.9,42.0,29.79,SSE,150,1.0,-999.0,64,-99.99,,,0.17,weatherlink.com 1.10,2013-10-07 20:34:00,
2013-10-07 16:46:00,55.7,42.0,29.79,SW,217,1.0,-999.0,60,-99.99,,,0.17,weatherlink.com 1.10,2013-10-07 20:46:00,
2013-10-07 17:01:00,55.3,42.0,29.80,SW,234,6.0,-999.0,61,-99.99,,,0.17,weatherlink.com 1.10,2013-10-07 21:01:00,
2013-10-07 17:16:00,53.9,42.0,29.80,SW,229,0.0,-999.0,64,-99.99,,,0.17,weatherlink.com 1.10,2013-10-07 21:16:00,
2013-10-07 17:31:00,53.3,43.0,29.82,SSE,160,0.0,-999.0,67,-99.99,,,0.17,weatherlink.com 1.10,2013-10-07 21:31:00,
2013-10-07 17:46:00,53.3,42.0,29.82,West,272,1.0,-999.0,66,-99.99,,,0.17,weatherlink.com 1.10,2013-10-07 21:46:00,
2013-10-07 18:01:00,53.3,43.0,29.83,SW,229,0.0,-999.0,67,-99.99,,,0.17,weatherlink.com 1.10,2013-10-07 22:01:00,
2013-10-07 18:16:00,53.2,43.0,29.83,SW,219,1.0,-999.0,68,-99.99,,,0.17,weatherlink.com 1.10,2013-10-07 22:16:00,
2013-10-07 18:31:00,52.9,43.0,29.84,SW,236,2.0,-999.0,70,-99.99,,,0.17,weatherlink.com 1.10,2013-10-07 22:31:00,
2013-10-07 18:46:00,52.8,44.0,29.84,SW,227,0.0,-999.0,71,-99.99,,,0.17,weatherlink.com 1.10,2013-10-07 22:46:00,
2013-10-07 19:01:00,52.8,44.0,29.86,South,181,2.0,-999.0,71,-99.99,,,0.17,weatherlink.com 1.10,2013-10-07 23:01:00,
2013-10-07 19:16:00,52.5,44.0,29.86,SSW,198,6.0,-999.0,73,-99.99,,,0.17,weatherlink.com 1.10,2013-10-07 23:16:00,
2013-10-07 19:31:00,52.2,45.0,29.87,South,181,0.0,-999.0,76,-99.99,,,0.17,weatherlink.com 1.10,2013-10-07 23:31:00,
2013-10-07 19:46:00,51.4,45.0,29.88,SW,217,0.0,-999.0,80,-99.99,,,0.17,weatherlink.com 1.10,2013-10-07 23:46:00,
2013-10-07 20:01:00,51.1,45.0,29.89,South,179,0.0,-999.0,81,-99.99,,,0.17,weatherlink.com 1.10,2013-10-08 00:01:00,
2013-10-07 20:16:00,51.0,46.0,29.90,SSW,213,0.0,-999.0,82,-99.99,,,0.17,weatherlink.com 1.10,2013-10-08 00:16:00,
2013-10-07 20:31:00,50.8,46.0,29.90,SSW,198,0.0,-999.0,84,-99.99,,,0.17,weatherlink.com 1.10,2013-10-08 00:31:00,
2013-10-07 20:46:00,50.5,47.0,29.92,WSW,239,2.0,-999.0,86,-99.99,,,0.17,weatherlink.com 1.10,2013-10-08 00:46:00,
2013-10-07 21:01:00,50.1,47.0,29.93,SSE,164,0.0,-999.0,89,-99.99,,,0.17,weatherlink.com 1.10,2013-10-08 01:01:00,
2013-10-07 21:16:00,49.8,47.0,29.93,SSW,192,0.0,-999.0,89,-99.99,,,0.17,weatherlink.com 1.10,2013-10-08 01:16:00,
2013-10-07 21:31:00,49.8,47.0,29.93,SW,216,2.0,-999.0,89,-99.99,,,0.17,weatherlink.com 1.10,2013-10-08 01:31:00,
2013-10-07 21:46:00,49.9,47.0,29.95,SW,223,0.0,-999.0,89,-99.99,,,0.17,weatherlink.com 1.10,2013-10-08 01:46:00,
2013-10-07 22:01:00,49.9,47.0,29.96,WSW,240,0.0,-999.0,90,-99.99,,,0.17,weatherlink.com 1.10,2013-10-08 02:01:00,
2013-10-07 22:16:00,50.1,48.0,29.97,NW,311,0.0,-999.0,91,-99.99,,,0.17,weatherlink.com 1.10,2013-10-08 02:16:00,
2013-10-07 22:31:00,49.9,47.0,29.98,SW,222,0.0,-999.0,91,-99.99,,,0.17,weatherlink.com 1.10,2013-10-08 02:31:00,
2013-10-07 22:46:00,49.4,47.0,29.99,SW,222,0.0,-999.0,91,-99.99,,,0.17,weatherlink.com 1.10,2013-10-08 02:46:00,
2013-10-07 23:01:00,48.9,46.0,29.99,SW,217,0.0,-999.0,91,-99.99,,,0.17,weatherlink.com 1.10,2013-10-08 03:01:00,
2013-10-07 23:16:00,48.6,46.0,29.99,SW,217,0.0,-999.0,91,-99.99,,,0.17,weatherlink.com 1.10,2013-10-08 03:16:00,
2013-10-07 23:31:00,48.3,46.0,30.00,SW,217,0.0,-999.0,92,-99.99,,,0.17,weatherlink.com 1.10,2013-10-08 03:31:00,
2013-10-07 23:46:00,48.0,46.0,30.01,SW,217,0.0,-999.0,92,-99.99,,,0.17,weatherlink.com 1.10,2013-10-08 03:46:00,